�v������,���r���O(���x),�����t���O,���r���O(���x),�����t���O,��1(���x),�����t���O,��2���x),�����t���O,�������x,�����t���O,�C�ۑ�(���x),�����t���O,�C�ۑ�(���x),�����t���O
3/1/2005 0:00,0,2,0,2,15.2,0,13.8,0,OVER,0,0,0,0,0
3/1/2005 0:15,0,2,0,2,15,0,13.8,0,OVER,0,0,0,0,0
3/1/2005 0:30,0,2,0,2,15,0,13.8,0,OVER,0,0,0,0,0
3/1/2005 0:45,0,2,0,2,14.9,0,13.8,0,OVER,0,0,0,0,0
3/1/2005 1:00,0,2,0,2,14.8,0,13.8,0,OVER,0,0,0,0,0
3/1/2005 1:15,0,2,0,2,14.8,0,13.7,0,OVER,0,0,0,0,0
3/1/2005 1:30,0,2,0,2,14.7,0,13.7,0,OVER,0,0,0,0,0
3/1/2005 1:45,0,2,0,2,14.6,0,13.7,0,OVER,0,0,0,0,0
3/1/2005 2:00,0,2,0,2,14.5,0,13.7,0,OVER,0,0,0,0,0
3/1/2005 2:15,0,2,0,2,14.4,0,13.7,0,OVER,0,0,0,0,0
3/1/2005 2:30,0,2,0,2,14.3,0,13.8,0,OVER,0,0,0,0,0
3/1/2005 2:45,0,2,0,2,14.2,0,13.7,0,OVER,0,0,0,0,0
3/1/2005 3:00,0,2,0,2,14.2,0,13.7,0,OVER,0,0,0,0,0
3/1/2005 3:15,0,2,0,2,14.1,0,13.6,0,OVER,0,0,0,0,0
3/1/2005 3:30,0,2,0,2,13.9,0,13.5,0,OVER,0,0,0,0,0
3/1/2005 3:45,0,2,0,2,13.8,0,13.5,0,OVER,0,0,0,0,0
3/1/2005 4:00,0,2,0,2,13.7,0,13.4,0,OVER,0,0,0,0,0
3/1/2005 4:15,0,2,0,2,13.6,0,13.3,0,OVER,0,0,0,0,0
3/1/2005 4:30,0,2,0,2,13.5,0,13.3,0,OVER,0,0,0,0,0
3/1/2005 4:45,0,2,0,2,13.5,0,13.2,0,OVER,0,0,0,0,0
3/1/2005 5:00,0,2,0,2,13.4,0,13.2,0,OVER,0,0,0,0,0
3/1/2005 5:15,0,2,0,2,13.3,0,13.1,0,OVER,0,0,0,0,0
3/1/2005 5:30,0,2,0,2,13.2,0,13.1,0,OVER,0,0,0,0,0
3/1/2005 5:45,0,2,0,2,13.1,0,13.1,0,OVER,0,0,0,0,0
3/1/2005 6:00,0,2,0,2,13.1,0,13,0,OVER,0,0,0,0,0
3/1/2005 6:15,0,2,0,2,13,0,12.9,0,OVER,0,0,0,0,0
3/1/2005 6:30,0,2,0,2,13,0,12.8,0,OVER,0,0,0,0,0
3/1/2005 6:45,0,2,0,2,12.9,0,12.8,0,OVER,0,0,0,0,0
3/1/2005 7:00,0,2,0,2,12.9,0,12.7,0,OVER,0,0,0,0,0
3/1/2005 7:15,0,2,0,2,12.9,0,12.6,0,OVER,0,0,0,0,0
3/1/2005 7:30,0,2,0,2,12.9,0,12.7,0,OVER,0,0,0,0,0
3/1/2005 7:45,0,2,0,2,12.8,0,12.8,0,OVER,0,0,0,0,0
3/1/2005 8:00,0,2,0,2,12.9,0,12.7,0,OVER,0,0,0,0,0
3/1/2005 8:15,0,2,0,2,12.9,0,12.7,0,OVER,0,0,0,0,0
3/1/2005 8:30,0,2,0,2,12.9,0,12.7,0,OVER,0,0,0,0,0
3/1/2005 8:45,0,2,0,2,12.9,0,12.7,0,OVER,0,0,0,0,0
3/1/2005 9:00,0,2,0,2,12.9,0,12.8,0,OVER,0,0,0,0,0
3/1/2005 9:15,0,2,0,2,12.9,0,13,0,OVER,0,0,0,0,0
3/1/2005 9:30,0,2,0,2,13.1,0,13.2,0,OVER,0,0,0,0,0
3/1/2005 9:45,0,2,0,2,13.3,0,13.6,0,OVER,0,0,0,0,0
3/1/2005 10:00,0,2,0,2,13.7,0,14.1,0,OVER,0,0,0,0,0
3/1/2005 10:15,0,2,0,2,14,0,14.3,0,OVER,0,0,0,0,0
3/1/2005 10:30,0,2,0,2,14.3,0,14.5,0,OVER,0,0,0,0,0
3/1/2005 10:45,0,2,0,2,14.6,0,14.7,0,OVER,0,0,0,0,0
3/1/2005 11:00,0,2,0,2,14.8,0,14.9,0,OVER,0,0,0,0,0
3/1/2005 11:15,0,2,0,2,14.9,0,14.8,0,OVER,0,0,0,0,0
3/1/2005 11:30,0,2,0,2,15,0,14.9,0,OVER,0,0,0,0,0
3/1/2005 11:45,0,2,0,2,15,0,14.9,0,OVER,0,0,0,0,0
3/1/2005 12:00,0,2,0,2,15.3,0,15.1,0,OVER,0,0,0,0,0
3/1/2005 12:15,0,2,0,2,15.5,0,15.3,0,OVER,0,0,0,0,0
3/1/2005 12:30,0,2,0,2,15.7,0,15.4,0,OVER,0,0,0,0,0
3/1/2005 12:45,0,2,0,2,15.7,0,15.3,0,OVER,0,0,0,0,0
3/1/2005 13:00,0,2,0,2,15.7,0,15.3,0,OVER,0,0,0,0,0
3/1/2005 13:15,0,2,0,2,15.7,0,15.3,0,OVER,0,0,0,0,0
3/1/2005 13:30,0,2,0,2,15.8,0,15.2,0,OVER,0,0,0,0,0
3/1/2005 13:45,0,2,0,2,15.8,0,15.3,0,OVER,0,0,0,0,0
3/1/2005 14:00,0,2,0,2,15.7,0,15.1,0,OVER,0,0,0,0,0
3/1/2005 14:15,0,2,0,2,15.5,0,14.8,0,OVER,0,0,0,0,0
3/1/2005 14:30,0,2,0,2,15.3,0,14.5,0,OVER,0,0,0,0,0
3/1/2005 14:45,0,2,0,2,15.1,0,14.3,0,OVER,0,0,0,0,0
3/1/2005 15:00,0,2,0,2,14.9,0,13.9,0,OVER,0,0,0,0,0
3/1/2005 15:15,0,2,0,2,14.7,0,13.7,0,OVER,0,0,0,0,0
3/1/2005 15:30,0,2,0,2,14.5,0,13.5,0,OVER,0,0,0,0,0
3/1/2005 15:45,0,2,0,2,14.4,0,13.4,0,OVER,0,0,0,0,0
3/1/2005 16:00,0,2,0,2,14.2,0,13.3,0,OVER,0,0,0,0,0
3/1/2005 16:15,0,2,0,2,14.1,0,13.3,0,OVER,0,0,0,0,0
3/1/2005 16:30,0,2,0,2,14.1,0,13.4,0,OVER,0,0,0,0,0
3/1/2005 16:45,0,2,0,2,14.1,0,13.5,0,OVER,0,0,0,0,0
3/1/2005 17:00,0,2,0,2,14.1,0,13.5,0,OVER,0,0,0,0,0
3/1/2005 17:15,0,2,0,2,14.1,0,13.6,0,OVER,0,0,0,0,0
3/1/2005 17:30,0,2,0,2,14,0,13.6,0,OVER,0,0,0,0,0
3/1/2005 17:45,0,2,0,2,14.1,0,13.6,0,OVER,0,0,0,0,0
3/1/2005 18:00,0,2,0,2,14,0,13.6,0,OVER,0,0,0,0,0
3/1/2005 18:15,0,2,0,2,14,0,13.5,0,OVER,0,0,0,0,0
3/1/2005 18:30,0,2,0,2,13.9,0,13.5,0,OVER,0,0,0,0,0
3/1/2005 18:45,0,2,0,2,13.9,0,13.4,0,OVER,0,0,0,0,0
3/1/2005 19:00,0,2,0,2,13.9,0,13.4,0,OVER,0,0,0,0,0
3/1/2005 19:15,0,2,0,2,13.9,0,13.3,0,OVER,0,0,0,0,0
3/1/2005 19:30,0,2,0,2,13.8,0,13.3,0,OVER,0,0,0,0,0
3/1/2005 19:45,0,2,0,2,13.7,0,13.2,0,OVER,0,0,0,0,0
3/1/2005 20:00,0,2,0,2,13.7,0,13.1,0,OVER,0,0,0,0,0
3/1/2005 20:15,0,2,0,2,13.6,0,13,0,OVER,0,0,0,0,0
3/1/2005 20:30,0,2,0,2,13.6,0,13,0,OVER,0,0,0,0,0
3/1/2005 20:45,0,2,0,2,13.6,0,13,0,OVER,0,0,0,0,0
3/1/2005 21:00,0,2,0,2,13.6,0,13,0,OVER,0,0,0,0,0
3/1/2005 21:15,0,2,0,2,13.5,0,13.1,0,OVER,0,0,0,0,0
3/1/2005 21:30,0,2,0,2,13.5,0,13.1,0,OVER,0,0,0,0,0
3/1/2005 21:45,0,2,0,2,13.5,0,13.1,0,OVER,0,0,0,0,0
3/1/2005 22:00,0,2,0,2,13.4,0,13.1,0,OVER,0,0,0,0,0
3/1/2005 22:15,0,2,0,2,13.4,0,13.2,0,OVER,0,0,0,0,0
3/1/2005 22:30,0,2,0,2,13.4,0,13.2,0,OVER,0,0,0,0,0
3/1/2005 22:45,0,2,0,2,13.4,0,13.2,0,OVER,0,0,0,0,0
3/1/2005 23:00,0,2,0,2,13.3,0,13.2,0,OVER,0,0,0,0,0
3/1/2005 23:15,0,2,0,2,13.3,0,13.2,0,OVER,0,0,0,0,0
3/1/2005 23:30,0,2,0,2,13.3,0,13.2,0,OVER,0,0,0,0,0
3/1/2005 23:45,0,2,0,2,13.2,0,13.2,0,OVER,0,0,0,0,0
3/2/2005 0:00,0,2,0,2,13.2,0,13.2,0,OVER,0,0,0,0,0
3/2/2005 0:15,0,2,0,2,13.1,0,13.2,0,OVER,0,0,0,0,0
3/2/2005 0:30,0,2,0,2,13.1,0,13.2,0,OVER,0,0,0,0,0
3/2/2005 0:45,0,2,0,2,13,0,13.1,0,OVER,0,0,0,0,0
3/2/2005 1:00,0,2,0,2,13,0,13.1,0,OVER,0,0,0,0,0
3/2/2005 1:15,0,2,0,2,12.9,0,13.1,0,OVER,0,0,0,0,0
3/2/2005 1:30,0,2,0,2,12.8,0,13.1,0,OVER,0,0,0,0,0
3/2/2005 1:45,0,2,0,2,12.8,0,13,0,OVER,0,0,0,0,0
3/2/2005 2:00,0,2,0,2,12.7,0,13,0,OVER,0,0,0,0,0
3/2/2005 2:15,0,2,0,2,12.7,0,13,0,OVER,0,0,0,0,0
3/2/2005 2:30,0,2,0,2,12.6,0,12.9,0,OVER,0,0,0,0,0
3/2/2005 2:45,0,2,0,2,12.6,0,12.9,0,OVER,0,0,0,0,0
3/2/2005 3:00,0,2,0,2,12.5,0,12.8,0,OVER,0,0,0,0,0
3/2/2005 3:15,0,2,0,2,12.4,0,12.7,0,OVER,0,0,0,0,0
3/2/2005 3:30,0,2,0,2,12.3,0,12.7,0,OVER,0,0,0,0,0
3/2/2005 3:45,0,2,0,2,12.3,0,12.6,0,OVER,0,0,0,0,0
3/2/2005 4:00,0,2,0,2,12.2,0,12.5,0,OVER,0,0,0,0,0
3/2/2005 4:15,0,2,0,2,12.1,0,12.4,0,OVER,0,0,0,0,0
3/2/2005 4:30,0,2,0,2,12,0,12.3,0,OVER,0,0,0,0,0
3/2/2005 4:45,0,2,0,2,11.9,0,12.2,0,OVER,0,0,0,0,0
3/2/2005 5:00,0,2,0,2,11.9,0,12.2,0,OVER,0,0,0,0,0
3/2/2005 5:15,0,2,0,2,11.8,0,12.1,0,OVER,0,0,0,0,0
3/2/2005 5:30,0,2,0,2,11.7,0,12,0,OVER,0,0,0,0,0
3/2/2005 5:45,0,2,0,2,11.6,0,11.9,0,OVER,0,0,0,0,0
3/2/2005 6:00,0,2,0,2,11.5,0,11.8,0,OVER,0,0,0,0,0
3/2/2005 6:15,0,2,0,2,11.4,0,11.7,0,OVER,0,0,0,0,0
3/2/2005 6:30,0,2,0,2,11.3,0,11.7,0,OVER,0,0,0,0,0
3/2/2005 6:45,0,2,0,2,11.3,0,11.6,0,OVER,0,0,0,0,0
3/2/2005 7:00,0,2,0,2,11.2,0,11.6,0,OVER,0,0,0,0,0
3/2/2005 7:15,0,2,0,2,11.3,0,11.7,0,OVER,0,0,0,0,0
3/2/2005 7:30,0,2,0,2,11.4,0,11.9,0,OVER,0,0,0,0,0
3/2/2005 7:45,0,2,0,2,11.5,0,12.1,0,OVER,0,0,0,0,0
3/2/2005 8:00,0,2,0,2,11.8,0,12.5,0,OVER,0,0,0,0,0
3/2/2005 8:15,0,2,0,2,12.2,0,12.7,0,OVER,0,0,0,0,0
3/2/2005 8:30,0,2,0,2,12.4,0,12.9,0,OVER,0,0,0,0,0
3/2/2005 8:45,0,2,0,2,12.7,0,13,0,OVER,0,0,0,0,0
3/2/2005 9:00,0,2,0,2,13.1,0,13.3,0,OVER,0,0,0,0,0
3/2/2005 9:15,0,2,0,2,13.4,0,13.4,0,OVER,0,0,0,0,0
3/2/2005 9:30,0,2,0,2,13.6,0,13.5,0,OVER,0,0,0,0,0
3/2/2005 9:45,0,2,0,2,13.9,0,13.7,0,OVER,0,0,0,0,0
3/2/2005 10:00,0,2,0,2,14.1,0,13.9,0,OVER,0,0,0,0,0
3/2/2005 10:15,0,2,0,2,14.2,0,13.8,0,OVER,0,0,0,0,0
3/2/2005 10:30,0,2,0,2,14.2,0,13.8,0,OVER,0,0,0,0,0
3/2/2005 10:45,0,2,0,2,14.2,0,13.8,0,OVER,0,0,0,0,0
3/2/2005 11:00,0,2,0,2,14.3,0,13.9,0,OVER,0,0,0,0,0
3/2/2005 11:15,0,2,0,2,14.3,0,13.9,0,OVER,0,0,0,0,0
3/2/2005 11:30,0,2,0,2,14.4,0,14.1,0,OVER,0,0,0,0,0
3/2/2005 11:45,0,2,0,2,14.5,0,14,0,OVER,0,0,0,0,0
3/2/2005 12:00,0,2,0,2,14.8,0,14.2,0,OVER,0,0,0,0,0
3/2/2005 12:15,0,2,0,2,15,0,14.3,0,OVER,0,0,0,0,0
3/2/2005 12:30,0,2,0,2,15,0,14.1,0,OVER,0,0,0,0,0
3/2/2005 12:45,0,2,0,2,15.1,0,13.9,0,OVER,0,0,0,0,0
3/2/2005 13:00,0,2,0,2,15,0,13.8,0,OVER,0,0,0,0,0
3/2/2005 13:15,0,2,0,2,14.9,0,13.6,0,OVER,0,0,0,0,0
3/2/2005 13:30,0,2,0,2,14.9,0,13.2,0,OVER,0,0,0,0,0
3/2/2005 13:45,0,2,0,2,14.8,0,13,0,OVER,0,0,0,0,0
3/2/2005 14:00,0,2,0,2,14.8,0,12.4,0,OVER,0,0,0,0,0
3/2/2005 14:15,0,2,0,2,14.6,0,12.3,0,OVER,0,0,0,0,0
3/2/2005 14:30,0,2,0,2,14.6,0,12.5,0,OVER,0,0,0,0,0
3/2/2005 14:45,0,2,0,2,14.6,0,12.5,0,OVER,0,0,0,0,0
3/2/2005 15:00,0,2,0,2,14.5,0,12.7,0,OVER,0,0,0,0,0
3/2/2005 15:15,0,2,0,2,14.5,0,12.9,0,OVER,0,0,0,0,0
3/2/2005 15:30,0,2,0,2,14.4,0,13,0,OVER,0,0,0,0,0
3/2/2005 15:45,0,2,0,2,14.4,0,13,0,OVER,0,0,0,0,0
3/2/2005 16:00,0,2,0,2,14.4,0,13.1,0,OVER,0,0,0,0,0
3/2/2005 16:15,0,2,0,2,14.3,0,13.1,0,OVER,0,0,0,0,0
3/2/2005 16:30,0,2,0,2,14.3,0,13.1,0,OVER,0,0,0,0,0
3/2/2005 16:45,0,2,0,2,14.3,0,12.8,0,OVER,0,0,0,0,0
3/2/2005 17:00,0,2,0,2,14.3,0,12.7,0,OVER,0,0,0,0,0
3/2/2005 17:15,0,2,0,2,14.3,0,12.8,0,OVER,0,0,0,0,0
3/2/2005 17:30,0,2,0,2,14.3,0,12.9,0,OVER,0,0,0,0,0
3/2/2005 17:45,0,2,0,2,14.4,0,13,0,OVER,0,0,0,0,0
3/2/2005 18:00,0,2,0,2,14.4,0,13.1,0,OVER,0,0,0,0,0
3/2/2005 18:15,0,2,0,2,14.4,0,13.1,0,OVER,0,0,0,0,0
3/2/2005 18:30,0,2,0,2,14.4,0,13.2,0,OVER,0,0,0,0,0
3/2/2005 18:45,0,2,0,2,14.3,0,13.2,0,OVER,0,0,0,0,0
3/2/2005 19:00,0,2,0,2,14.4,0,13.2,0,OVER,0,0,0,0,0
3/2/2005 19:15,0,2,0,2,14.4,0,13.2,0,OVER,0,0,0,0,0
3/2/2005 19:30,0,2,0,2,14.3,0,13.2,0,OVER,0,0,0,0,0
3/2/2005 19:45,0,2,0,2,14.3,0,13.2,0,OVER,0,0,0,0,0
3/2/2005 20:00,0,2,0,2,14.3,0,13.1,0,OVER,0,0,0,0,0
3/2/2005 20:15,0,2,0,2,14.3,0,13.1,0,OVER,0,0,0,0,0
3/2/2005 20:30,0,2,0,2,14.2,0,13.1,0,OVER,0,0,0,0,0
3/2/2005 20:45,0,2,0,2,14.2,0,13,0,OVER,0,0,0,0,0
3/2/2005 21:00,0,2,0,2,14.3,0,13,0,OVER,0,0,0,0,0
3/2/2005 21:15,0,2,0,2,14.4,0,13,0,OVER,0,0,0,0,0
3/2/2005 21:30,0,2,0,2,14.4,0,13,0,OVER,0,0,0,0,0
3/2/2005 21:45,0,2,0,2,14.4,0,12.9,0,OVER,0,0,0,0,0
3/2/2005 22:00,0,2,0,2,14.3,0,12.9,0,OVER,0,0,0,0,0
3/2/2005 22:15,0,2,0,2,14.4,0,12.9,0,OVER,0,0,0,0,0
3/2/2005 22:30,0,2,0,2,14.3,0,12.8,0,OVER,0,0,0,0,0
3/2/2005 22:45,0,2,0,2,14.2,0,12.7,0,OVER,0,0,0,0,0
3/2/2005 23:00,0,2,0,2,14.2,0,12.6,0,OVER,0,0,0,0,0
3/2/2005 23:15,0,2,0,2,14.2,0,12.7,0,OVER,0,0,0,0,0
3/2/2005 23:30,0,2,0,2,14.1,0,12.7,0,OVER,0,0,0,0,0
3/2/2005 23:45,0,2,0,2,14.1,0,12.6,0,OVER,0,0,0,0,0
3/3/2005 0:00,0,2,0,2,14,0,12.6,0,OVER,0,0,0,0,0
3/3/2005 0:15,0,2,0,2,13.9,0,12.6,0,OVER,0,0,0,0,0
3/3/2005 0:30,0,2,0,2,13.8,0,12.6,0,OVER,0,0,0,0,0
3/3/2005 0:45,0,2,0,2,13.7,0,12.5,0,OVER,0,0,0,0,0
3/3/2005 1:00,0,2,0,2,13.7,0,12.5,0,OVER,0,0,0,0,0
3/3/2005 1:15,0,2,0,2,13.5,0,12.4,0,OVER,0,0,0,0,0
3/3/2005 1:30,0,2,0,2,13.5,0,12.4,0,OVER,0,0,0,0,0
3/3/2005 1:45,0,2,0,2,13.4,0,12.3,0,OVER,0,0,0,0,0
3/3/2005 2:00,0,2,0,2,13.3,0,12.3,0,OVER,0,0,0,0,0
3/3/2005 2:15,0,2,0,2,13.2,0,12.2,0,OVER,0,0,0,0,0
3/3/2005 2:30,0,2,0,2,13.1,0,12.2,0,OVER,0,0,0,0,0
3/3/2005 2:45,0,2,0,2,13.1,0,12.1,0,OVER,0,0,0,0,0
3/3/2005 3:00,0,2,0,2,13,0,12.1,0,OVER,0,0,0,0,0
3/3/2005 3:15,0,2,0,2,12.9,0,12.1,0,OVER,0,0,0,0,0
3/3/2005 3:30,0,2,0,2,12.8,0,12,0,OVER,0,0,0,0,0
3/3/2005 3:45,0,2,0,2,12.8,0,12,0,OVER,0,0,0,0,0
3/3/2005 4:00,0,2,0,2,12.7,0,11.9,0,OVER,0,0,0,0,0
3/3/2005 4:15,0,2,0,2,12.6,0,11.8,0,OVER,0,0,0,0,0
3/3/2005 4:30,0,2,0,2,12.6,0,11.8,0,OVER,0,0,0,0,0
3/3/2005 4:45,0,2,0,2,12.5,0,11.7,0,OVER,0,0,0,0,0
3/3/2005 5:00,0,2,0,2,12.4,0,11.6,0,OVER,0,0,0,0,0
3/3/2005 5:15,0,2,0,2,12.3,0,11.6,0,OVER,0,0,0,0,0
3/3/2005 5:30,0,2,0,2,12.3,0,11.6,0,OVER,0,0,0,0,0
3/3/2005 5:45,0,2,0,2,12.2,0,11.4,0,OVER,0,0,0,0,0
3/3/2005 6:00,0,2,0,2,12.1,0,11.3,0,OVER,0,0,0,0,0
3/3/2005 6:15,0,2,0,2,12,0,11.3,0,OVER,0,0,0,0,0
3/3/2005 6:30,0,2,0,2,12,0,11.2,0,OVER,0,0,0,0,0
3/3/2005 6:45,0,2,0,2,11.9,0,11.2,0,OVER,0,0,0,0,0
3/3/2005 7:00,0,2,0,2,11.9,0,11.2,0,OVER,0,0,0,0,0
3/3/2005 7:15,0,2,0,2,11.9,0,11.2,0,OVER,0,0,0,0,0
3/3/2005 7:30,0,2,0,2,11.8,0,11.3,0,OVER,0,0,0,0,0
3/3/2005 7:45,0,2,0,2,11.9,0,11.4,0,OVER,0,0,0,0,0
3/3/2005 8:00,0,2,0,2,12.1,0,11.6,0,OVER,0,0,0,0,0
3/3/2005 8:15,0,2,0,2,12.2,0,11.7,0,OVER,0,0,0,0,0
3/3/2005 8:30,0,2,0,2,12.2,0,11.7,0,OVER,0,0,0,0,0
3/3/2005 8:45,0,2,0,2,12.4,0,11.9,0,OVER,0,0,0,0,0
3/3/2005 9:00,0,2,0,2,12.5,0,12,0,OVER,0,0,0,0,0
3/3/2005 9:15,0,2,0,2,12.5,0,12.1,0,OVER,0,0,0,0,0
3/3/2005 9:30,0,2,0,2,12.7,0,12.3,0,OVER,0,0,0,0,0
3/3/2005 9:45,0,2,0,2,12.9,0,12.6,0,OVER,0,0,0,0,0
3/3/2005 10:00,0,2,0,2,13.1,0,12.8,0,OVER,0,0,0,0,0
3/3/2005 10:15,0,2,0,2,13.3,0,13,0,OVER,0,0,0,0,0
3/3/2005 10:30,0,2,0,2,13.6,0,13.4,0,OVER,0,0,0,0,0
3/3/2005 10:45,0,2,0,2,13.8,0,14,0,OVER,0,0,0,0,0
3/3/2005 11:00,0,2,0,2,14.1,0,14.3,0,OVER,0,0,0,0,0
3/3/2005 11:15,0,2,0,2,14.3,0,14.6,0,OVER,0,0,0,0,0
3/3/2005 11:30,0,2,0,2,14.8,0,14.8,0,OVER,0,0,0,0,0
3/3/2005 11:45,0,2,0,2,15,0,15,0,OVER,0,0,0,0,0
3/3/2005 12:00,0,2,0,2,15.4,0,15.1,0,OVER,0,0,0,0,0
3/3/2005 12:15,0,2,0,2,15.5,0,15.1,0,OVER,0,0,0,0,0
3/3/2005 12:30,0,2,0,2,15.6,0,15.1,0,OVER,0,0,0,0,0
3/3/2005 12:45,0,2,0,2,15.6,0,15,0,OVER,0,0,0,0,0
3/3/2005 13:00,0,2,0,2,15.6,0,14.9,0,OVER,0,0,0,0,0
3/3/2005 13:15,0,2,0,2,15.6,0,14.9,0,OVER,0,0,0,0,0
3/3/2005 13:30,0,2,0,2,15.6,0,14.8,0,OVER,0,0,0,0,0
3/3/2005 13:45,0,2,0,2,15.6,0,14.7,0,OVER,0,0,0,0,0
3/3/2005 14:00,0,2,0,2,15.6,0,14.6,0,OVER,0,0,0,0,0
3/3/2005 14:15,0,2,0,2,15.6,0,14.6,0,OVER,0,0,0,0,0
3/3/2005 14:30,0,2,0,2,15.5,0,14.5,0,OVER,0,0,0,0,0
3/3/2005 14:45,0,2,0,2,15.5,0,14.3,0,OVER,0,0,0,0,0
3/3/2005 15:00,0,2,0,2,15.4,0,14.2,0,OVER,0,0,0,0,0
3/3/2005 15:15,0,2,0,2,15.3,0,14.1,0,OVER,0,0,0,0,0
3/3/2005 15:30,0,2,0,2,15.3,0,14.1,0,OVER,0,0,0,0,0
3/3/2005 15:45,0,2,0,2,15.2,0,14.1,0,OVER,0,0,0,0,0
3/3/2005 16:00,0,2,0,2,15.1,0,14.1,0,OVER,0,0,0,0,0
3/3/2005 16:15,0,2,0,2,15.1,0,14.1,0,OVER,0,0,0,0,0
3/3/2005 16:30,0,2,0,2,15,0,14,0,OVER,0,0,0,0,0
3/3/2005 16:45,0,2,0,2,14.9,0,14,0,OVER,0,0,0,0,0
3/3/2005 17:00,0,2,0,2,14.9,0,13.9,0,OVER,0,0,0,0,0
3/3/2005 17:15,0,2,0,2,14.9,0,13.9,0,OVER,0,0,0,0,0
3/3/2005 17:30,0,2,0,2,14.9,0,13.9,0,OVER,0,0,0,0,0
3/3/2005 17:45,0,2,0,2,14.8,0,13.9,0,OVER,0,0,0,0,0
3/3/2005 18:00,0,2,0,2,14.8,0,13.8,0,OVER,0,0,0,0,0
3/3/2005 18:15,0,2,0,2,14.7,0,13.8,0,OVER,0,0,0,0,0
3/3/2005 18:30,0,2,0,2,14.7,0,13.8,0,OVER,0,0,0,0,0
3/3/2005 18:45,0,2,0,2,14.7,0,13.7,0,OVER,0,0,0,0,0
3/3/2005 19:00,0,2,0,2,14.7,0,13.7,0,OVER,0,0,0,0,0
3/3/2005 19:15,0,2,0,2,14.7,0,13.7,0,OVER,0,0,0,0,0
3/3/2005 19:30,0,2,0,2,14.7,0,13.7,0,OVER,0,0,0,0,0
3/3/2005 19:45,0,2,0,2,14.7,0,13.7,0,OVER,0,0,0,0,0
3/3/2005 20:00,0,2,0,2,14.7,0,13.6,0,OVER,0,0,0,0,0
3/3/2005 20:15,0,2,0,2,14.7,0,13.6,0,OVER,0,0,0,0,0
3/3/2005 20:30,0,2,0,2,14.7,0,13.6,0,OVER,0,0,0,0,0
3/3/2005 20:45,0,2,0,2,14.8,0,13.5,0,OVER,0,0,0,0,0
3/3/2005 21:00,0,2,0,2,14.8,0,13.5,0,OVER,0,0,0,0,0
3/3/2005 21:15,0,2,0,2,14.9,0,13.4,0,OVER,0,0,0,0,0
3/3/2005 21:30,0,2,0,2,15.1,0,13.5,0,OVER,0,0,0,0,0
3/3/2005 21:45,0,2,0,2,15.2,0,13.6,0,OVER,0,0,0,0,0
3/3/2005 22:00,0,2,0,2,15.2,0,13.6,0,OVER,0,0,0,0,0
3/3/2005 22:15,0,2,0,2,15.2,0,13.5,0,OVER,0,0,0,0,0
3/3/2005 22:30,0,2,0,2,15.2,0,13.5,0,OVER,0,0,0,0,0
3/3/2005 22:45,0,2,0,2,15.2,0,13.4,0,OVER,0,0,0,0,0
3/3/2005 23:00,0,2,0,2,15.2,0,13.4,0,OVER,0,0,0,0,0
3/3/2005 23:15,0,2,0,2,15.1,0,13.3,0,OVER,0,0,0,0,0
3/3/2005 23:30,0,2,0,2,15.1,0,13.3,0,OVER,0,0,0,0,0
3/3/2005 23:45,0,2,0,2,15,0,13.2,0,OVER,0,0,0,0,0
3/4/2005 0:00,0,2,0,2,15,0,13.2,0,OVER,0,0,0,0,0
3/4/2005 0:15,0,2,0,2,14.9,0,13.1,0,OVER,0,0,0,0,0
3/4/2005 0:30,0,2,0,2,14.9,0,13.1,0,OVER,0,0,0,0,0
3/4/2005 0:45,0,2,0,2,14.6,0,13.1,0,OVER,0,0,0,0,0
3/4/2005 1:00,0,2,0,2,14.5,0,13,0,OVER,0,0,0,0,0
3/4/2005 1:15,0,2,0,2,14.3,0,13,0,OVER,0,0,0,0,0
3/4/2005 1:30,0,2,0,2,14.2,0,13,0,OVER,0,0,0,0,0
3/4/2005 1:45,0,2,0,2,14.1,0,13,0,OVER,0,0,0,0,0
3/4/2005 2:00,0,2,0,2,13.9,0,12.9,0,OVER,0,0,0,0,0
3/4/2005 2:15,0,2,0,2,13.8,0,12.9,0,OVER,0,0,0,0,0
3/4/2005 2:30,0,2,0,2,13.7,0,12.9,0,OVER,0,0,0,0,0
3/4/2005 2:45,0,2,0,2,13.7,0,12.9,0,OVER,0,0,0,0,0
3/4/2005 3:00,0,2,0,2,13.5,0,12.9,0,OVER,0,0,0,0,0
3/4/2005 3:15,0,2,0,2,13.4,0,12.8,0,OVER,0,0,0,0,0
3/4/2005 3:30,0,2,0,2,13.4,0,12.8,0,OVER,0,0,0,0,0
3/4/2005 3:45,0,2,0,2,13.3,0,12.7,0,OVER,0,0,0,0,0
3/4/2005 4:00,0,2,0,2,13.2,0,12.7,0,OVER,0,0,0,0,0
3/4/2005 4:15,0,2,0,2,13.1,0,12.7,0,OVER,0,0,0,0,0
3/4/2005 4:30,0,2,0,2,13,0,12.6,0,OVER,0,0,0,0,0
3/4/2005 4:45,0,2,0,2,12.9,0,12.6,0,OVER,0,0,0,0,0
3/4/2005 5:00,0,2,0,2,12.8,0,12.6,0,OVER,0,0,0,0,0
3/4/2005 5:15,0,2,0,2,12.8,0,12.5,0,OVER,0,0,0,0,0
3/4/2005 5:30,0,2,0,2,12.7,0,12.4,0,OVER,0,0,0,0,0
3/4/2005 5:45,0,2,0,2,12.6,0,12.4,0,OVER,0,0,0,0,0
3/4/2005 6:00,0,2,0,2,12.5,0,12.3,0,OVER,0,0,0,0,0
3/4/2005 6:15,0,2,0,2,12.4,0,12.3,0,OVER,0,0,0,0,0
3/4/2005 6:30,0,2,0,2,12.4,0,12.2,0,OVER,0,0,0,0,0
3/4/2005 6:45,0,2,0,2,12.3,0,12.2,0,OVER,0,0,0,0,0
3/4/2005 7:00,0,2,0,2,12.2,0,12.1,0,OVER,0,0,0,0,0
3/4/2005 7:15,0,2,0,2,12.1,0,12.1,0,OVER,0,0,0,0,0
3/4/2005 7:30,0,2,0,2,12.1,0,12,0,OVER,0,0,0,0,0
3/4/2005 7:45,0,2,0,2,12,0,11.9,0,OVER,0,0,0,0,0
3/4/2005 8:00,0,2,0,2,12,0,11.9,0,OVER,0,0,0,0,0
3/4/2005 8:15,0,2,0,2,12,0,11.8,0,OVER,0,0,0,0,0
3/4/2005 8:30,0,2,0,2,12.1,0,11.9,0,OVER,0,0,0,0,0
3/4/2005 8:45,0,2,0,2,12.2,0,11.9,0,OVER,0,0,0,0,0
3/4/2005 9:00,0,2,0,2,12.3,0,11.8,0,OVER,0,0,0,0,0
3/4/2005 9:15,0,2,0,2,12.3,0,11.7,0,OVER,0,0,0,0,0
3/4/2005 9:30,0,2,0,2,12.3,0,11.7,0,OVER,0,0,0,0,0
3/4/2005 9:45,0,2,0,2,12.3,0,11.6,0,OVER,0,0,0,0,0
3/4/2005 10:00,0,2,0,2,12.2,0,11.5,0,OVER,0,0,0,0,0
3/4/2005 10:15,0,2,0,2,12.2,0,11.5,0,OVER,0,0,0,0,0
3/4/2005 10:30,0,2,0,2,12.2,0,11.4,0,OVER,0,0,0,0,0
3/4/2005 10:45,0,2,0,2,12.1,0,11.4,0,OVER,0,0,0,0,0
3/4/2005 11:00,0,2,0,2,12.1,0,11.3,0,OVER,0,0,0,0,0
3/4/2005 11:15,0,2,0,2,12.2,0,11.3,0,OVER,0,0,0,0,0
3/4/2005 11:30,0,2,0,2,12.1,0,11.3,0,OVER,0,0,0,0,0
3/4/2005 11:45,0,2,0,2,12,0,11.2,0,OVER,0,0,0,0,0
3/4/2005 12:00,0,2,0,2,11.9,0,11.3,0,OVER,0,0,0,0,0
3/4/2005 12:15,0,2,0,2,11.9,0,11.3,0,OVER,0,0,0,0,0
3/4/2005 12:30,0,2,0,2,11.9,0,11.3,0,OVER,0,0,0,0,0
3/4/2005 12:45,0,2,0,2,11.9,0,11.3,0,OVER,0,0,0,0,0
3/4/2005 13:00,0,2,0,2,11.9,0,11.3,0,OVER,0,0,0,0,0
3/4/2005 13:15,0,2,0,2,11.9,0,11.3,0,OVER,0,0,0,0,0
3/4/2005 13:30,0,2,0,2,11.9,0,11.3,0,OVER,0,0,0,0,0
3/4/2005 13:45,0,2,0,2,11.9,0,11.3,0,OVER,0,0,0,0,0
3/4/2005 14:00,0,2,0,2,12,0,11.3,0,OVER,0,0,0,0,0
3/4/2005 14:15,0,2,0,2,12,0,11.3,0,OVER,0,0,0,0,0
3/4/2005 14:30,0,2,0,2,12.1,0,11.3,0,OVER,0,0,0,0,0
3/4/2005 14:45,0,2,0,2,12.2,0,11.4,0,OVER,0,0,0,0,0
3/4/2005 15:00,0,2,0,2,12.2,0,11.4,0,OVER,0,0,0,0,0
3/4/2005 15:15,0,2,0,2,12.2,0,11.4,0,OVER,0,0,0,0,0
3/4/2005 15:30,0,2,0,2,12.2,0,11.4,0,OVER,0,0,0,0,0
3/4/2005 15:45,0,2,0,2,12.3,0,11.4,0,OVER,0,0,0,0,0
3/4/2005 16:00,0,2,0,2,12.3,0,11.4,0,OVER,0,0,0,0,0
3/4/2005 16:15,0,2,0,2,12.3,0,11.4,0,OVER,0,0,0,0,0
3/4/2005 16:30,0,2,0,2,12.4,0,11.4,0,OVER,0,0,0,0,0
3/4/2005 16:45,0,2,0,2,12.5,0,11.5,0,OVER,0,0,0,0,0
3/4/2005 17:00,0,2,0,2,12.4,0,11.5,0,OVER,0,0,0,0,0
3/4/2005 17:15,0,2,0,2,12.4,0,11.4,0,OVER,0,0,0,0,0
3/4/2005 17:30,0,2,0,2,12.3,0,11.3,0,OVER,0,0,0,0,0
3/4/2005 17:45,0,2,0,2,12.2,0,11.3,0,OVER,0,0,0,0,0
3/4/2005 18:00,0,2,0,2,12.2,0,11.2,0,OVER,0,0,0,0,0
3/4/2005 18:15,0,2,0,2,12.1,0,11.1,0,OVER,0,0,0,0,0
3/4/2005 18:30,0,2,0,2,12,0,11.1,0,OVER,0,0,0,0,0
3/4/2005 18:45,0,2,0,2,12,0,11,0,OVER,0,0,0,0,0
3/4/2005 19:00,0,2,0,2,11.9,0,11,0,OVER,0,0,0,0,0
3/4/2005 19:15,0,2,0,2,11.9,0,10.9,0,OVER,0,0,0,0,0
3/4/2005 19:30,0,2,0,2,11.9,0,10.9,0,OVER,0,0,0,0,0
3/4/2005 19:45,0,2,0,2,11.8,0,10.9,0,OVER,0,0,0,0,0
3/4/2005 20:00,0,2,0,2,11.9,0,10.8,0,OVER,0,0,0,0,0
3/4/2005 20:15,0,2,0,2,11.9,0,10.7,0,OVER,0,0,0,0,0
3/4/2005 20:30,0,2,0,2,11.9,0,10.7,0,OVER,0,0,0,0,0
3/4/2005 20:45,0,2,0,2,12.1,0,10.7,0,OVER,0,0,0,0,0
3/4/2005 21:00,0,2,0,2,12.1,0,10.7,0,OVER,0,0,0,0,0
3/4/2005 21:15,0,2,0,2,12.6,0,10.9,0,OVER,0,0,0,0,0
3/4/2005 21:30,0,2,0,2,13.1,0,11.2,0,OVER,0,0,0,0,0
3/4/2005 21:45,0,2,0,2,13,0,11.2,0,OVER,0,0,0,0,0
3/4/2005 22:00,0,2,0,2,12.9,0,11.2,0,OVER,0,0,0,0,0
3/4/2005 22:15,0,2,0,2,12.8,0,11.1,0,OVER,0,0,0,0,0
3/4/2005 22:30,0,2,0,2,12.7,0,11,0,OVER,0,0,0,0,0
3/4/2005 22:45,0,2,0,2,12.7,0,11,0,OVER,0,0,0,0,0
3/4/2005 23:00,0,2,0,2,12.6,0,10.9,0,OVER,0,0,0,0,0
3/4/2005 23:15,0,2,0,2,12.5,0,10.8,0,OVER,0,0,0,0,0
3/4/2005 23:30,0,2,0,2,12.5,0,10.8,0,OVER,0,0,0,0,0
3/4/2005 23:45,0,2,0,2,12.4,0,10.7,0,OVER,0,0,0,0,0
3/5/2005 0:00,0,2,0,2,12.4,0,10.7,0,OVER,0,0,0,0,0
3/5/2005 0:15,0,2,0,2,12.4,0,10.6,0,OVER,0,0,0,0,0
3/5/2005 0:30,0,2,0,2,12.4,0,10.6,0,OVER,0,0,0,0,0
3/5/2005 0:45,0,2,0,2,12.3,0,10.6,0,OVER,0,0,0,0,0
3/5/2005 1:00,0,2,0,2,12.3,0,10.6,0,OVER,0,0,0,0,0
3/5/2005 1:15,0,2,0,2,12.3,0,10.6,0,OVER,0,0,0,0,0
3/5/2005 1:30,0,2,0,2,12.3,0,10.6,0,OVER,0,0,0,0,0
3/5/2005 1:45,0,2,0,2,12.2,0,10.6,0,OVER,0,0,0,0,0
3/5/2005 2:00,0,2,0,2,12.2,0,10.6,0,OVER,0,0,0,0,0
3/5/2005 2:15,0,2,0,2,12.1,0,10.6,0,OVER,0,0,0,0,0
3/5/2005 2:30,0,2,0,2,12.1,0,10.6,0,OVER,0,0,0,0,0
3/5/2005 2:45,0,2,0,2,12,0,10.7,0,OVER,0,0,0,0,0
3/5/2005 3:00,0,2,0,2,12,0,10.7,0,OVER,0,0,0,0,0
3/5/2005 3:15,0,2,0,2,11.9,0,10.7,0,OVER,0,0,0,0,0
3/5/2005 3:30,0,2,0,2,11.8,0,10.7,0,OVER,0,0,0,0,0
3/5/2005 3:45,0,2,0,2,11.8,0,10.7,0,OVER,0,0,0,0,0
3/5/2005 4:00,0,2,0,2,11.7,0,10.7,0,OVER,0,0,0,0,0
3/5/2005 4:15,0,2,0,2,11.7,0,10.7,0,OVER,0,0,0,0,0
3/5/2005 4:30,0,2,0,2,11.6,0,10.7,0,OVER,0,0,0,0,0
3/5/2005 4:45,0,2,0,2,11.5,0,10.6,0,OVER,0,0,0,0,0
3/5/2005 5:00,0,2,0,2,11.4,0,10.6,0,OVER,0,0,0,0,0
3/5/2005 5:15,0,2,0,2,11.4,0,10.6,0,OVER,0,0,0,0,0
3/5/2005 5:30,0,2,0,2,11.4,0,10.6,0,OVER,0,0,0,0,0
3/5/2005 5:45,0,2,0,2,11.3,0,10.6,0,OVER,0,0,0,0,0
3/5/2005 6:00,0,2,0,2,11.2,0,10.6,0,OVER,0,0,0,0,0
3/5/2005 6:15,0,2,0,2,11.2,0,10.6,0,OVER,0,0,0,0,0
3/5/2005 6:30,0,2,0,2,11.1,0,10.5,0,OVER,0,0,0,0,0
3/5/2005 6:45,0,2,0,2,11,0,10.5,0,OVER,0,0,0,0,0
3/5/2005 7:00,0,2,0,2,11,0,10.5,0,OVER,0,0,0,0,0
3/5/2005 7:15,0,2,0,2,10.9,0,10.5,0,OVER,0,0,0,0,0
3/5/2005 7:30,0,2,0,2,10.9,0,10.5,0,OVER,0,0,0,0,0
3/5/2005 7:45,0,2,0,2,10.9,0,10.5,0,OVER,0,0,0,0,0
3/5/2005 8:00,0,2,0,2,10.9,0,10.6,0,OVER,0,0,0,0,0
3/5/2005 8:15,0,2,0,2,11,0,10.6,0,OVER,0,0,0,0,0
3/5/2005 8:30,0,2,0,2,11,0,10.6,0,OVER,0,0,0,0,0
3/5/2005 8:45,0,2,0,2,11.1,0,10.6,0,OVER,0,0,0,0,0
3/5/2005 9:00,0,2,0,2,11.2,0,10.6,0,OVER,0,0,0,0,0
3/5/2005 9:15,0,2,0,2,11.2,0,10.6,0,OVER,0,0,0,0,0
3/5/2005 9:30,0,2,0,2,11.2,0,10.6,0,OVER,0,0,0,0,0
3/5/2005 9:45,0,2,0,2,11.3,0,10.7,0,OVER,0,0,0,0,0
3/5/2005 10:00,0,2,0,2,11.4,0,10.7,0,OVER,0,0,0,0,0
3/5/2005 10:15,0,2,0,2,11.5,0,10.8,0,OVER,0,0,0,0,0
3/5/2005 10:30,0,2,0,2,11.6,0,11.1,0,OVER,0,0,0,0,0
3/5/2005 10:45,0,2,0,2,12.4,0,11.8,0,OVER,0,0,0,0,0
3/5/2005 11:00,0,2,0,2,12.9,0,12.4,0,OVER,0,0,0,0,0
3/5/2005 11:15,0,2,0,2,13.3,0,12.9,0,OVER,0,0,0,0,0
3/5/2005 11:30,0,2,0,2,13.6,0,13.3,0,OVER,0,0,0,0,0
3/5/2005 11:45,0,2,0,2,14,0,13.6,0,OVER,0,0,0,0,0
3/5/2005 12:00,0,2,0,2,14.1,0,13.7,0,OVER,0,0,0,0,0
3/5/2005 12:15,0,2,0,2,14.1,0,13.8,0,OVER,0,0,0,0,0
3/5/2005 12:30,0,2,0,2,14.2,0,13.9,0,OVER,0,0,0,0,0
3/5/2005 12:45,0,2,0,2,14.2,0,13.9,0,OVER,0,0,0,0,0
3/5/2005 13:00,0,2,0,2,14.2,0,14,0,OVER,0,0,0,0,0
3/5/2005 13:15,0,2,0,2,14.3,0,14,0,OVER,0,0,0,0,0
3/5/2005 13:30,0,2,0,2,14.3,0,14,0,OVER,0,0,0,0,0
3/5/2005 13:45,0,2,0,2,14.3,0,14,0,OVER,0,0,0,0,0
3/5/2005 14:00,0,2,0,2,14.3,0,14,0,OVER,0,0,0,0,0
3/5/2005 14:15,0,2,0,2,14.2,0,13.9,0,OVER,0,0,0,0,0
3/5/2005 14:30,0,2,0,2,14.2,0,13.9,0,OVER,0,0,0,0,0
3/5/2005 14:45,0,2,0,2,14.1,0,13.8,0,OVER,0,0,0,0,0
3/5/2005 15:00,0,2,0,2,14,0,13.7,0,OVER,0,0,0,0,0
3/5/2005 15:15,0,2,0,2,13.9,0,13.6,0,OVER,0,0,0,0,0
3/5/2005 15:30,0,2,0,2,13.9,0,13.5,0,OVER,0,0,0,0,0
3/5/2005 15:45,0,2,0,2,13.8,0,13.4,0,OVER,0,0,0,0,0
3/5/2005 16:00,0,2,0,2,13.7,0,13.2,0,OVER,0,0,0,0,0
3/5/2005 16:15,0,2,0,2,13.6,0,13.1,0,OVER,0,0,0,0,0
3/5/2005 16:30,0,2,0,2,13.5,0,13,0,OVER,0,0,0,0,0
3/5/2005 16:45,0,2,0,2,13.6,0,12.9,0,OVER,0,0,0,0,0
3/5/2005 17:00,0,2,0,2,13.5,0,12.9,0,OVER,0,0,0,0,0
3/5/2005 17:15,0,2,0,2,13.5,0,12.8,0,OVER,0,0,0,0,0
3/5/2005 17:30,0,2,0,2,13.5,0,12.8,0,OVER,0,0,0,0,0
3/5/2005 17:45,0,2,0,2,13.4,0,12.7,0,OVER,0,0,0,0,0